User: anonymous
Location: Caltech
(34.1382°N, 118.1253°W)
Time: 01:12:56
(UTC-07:00)
Language:

Uribyol 2 - Orbit

View from above orbital plane
View from above orbital plane
View from above satellite
View from above satellite

Ground track
Ground track

The orbit data is extracted from the following two-line orbital elements,

1 22828U 93061F   14107.82572179  .00000326  00000-0  14243-3 0  5843
2 22828 098.6435 053.8172 0011065 081.1103 279.1332 14.30286730 40614
Epoch (UTC): 17 April 2014 19:49:02
Eccentricity: 0.0011065
inclination: 98.6435°
perigee height: 783 km
apogee height: 799 km
right ascension of ascending node: 53.8172°
argument of perigee: 81.1103°
revolutions per day: 14.30286730
mean anomaly at epoch: 279.1332°
orbit number at epoch: 4061

The dashed part of the orbit path shows where the satellite is in the earth's shadow,  

DLR